WXM80 ListenWXM80 Stop

You find our weather info also at:

UK Metoffice

WeatherCloud

Weather Underground

Northeastern Weather Network

AWEKAS

Citizen Weather Observer Program (CWOP)

HAMweather, WeatherForYou, PWS Weather


Weather Underground History page Text

Daily Summary for November 3, 2016 Units:  English    Metric   Both
« Previous Day
Next Day »
Daily Weekly Monthly Yearly Custom
  High: Low: Average:
Temperature: 72.1 °F 53.9 °F 61.7 °F
Dew Point: 61.5 °F 49.6 °F 55.8 °F
Humidity: 98 % 64 % 82 %
Wind Speed: 9.5 mph 0.0 mph 2.2 mph
Wind Gust: 18.4 mph - -
Wind:- - WSW
Pressure: 30.06 in 29.77 in -
Precipitation: 0.00 in    
Historical Graphs
 
 
Tabular Data for November 3, 2016
Time Temperature Dew Point Pressure Wind Wind Speed Wind Gust Humidity Rainfall Rate (Hourly)
00:09 59.3 °F 57.0 °F 30.06 in SW 0.6 mph 2.3 mph 92 % 0.00 in
00:14 59.4 °F 57.1 °F 30.05 in SW 1.8 mph 3.5 mph 92 % 0.00 in
00:19 59.5 °F 57.2 °F 30.05 in SW 0.7 mph 2.0 mph 92 % 0.00 in
00:24 59.6 °F 57.0 °F 30.05 in Calm     91 % 0.00 in
00:29 59.6 °F 57.0 °F 30.05 in SW 0.9 mph 1.2 mph 91 % 0.00 in
00:34 59.7 °F 57.1 °F 30.05 in SW 0.2 mph 1.0 mph 91 % 0.00 in
00:39 59.7 °F 57.1 °F 30.05 in SW 0.4 mph 2.3 mph 91 % 0.00 in
00:45 59.7 °F 56.8 °F 30.05 in Calm     90 % 0.00 in
00:50 59.6 °F 56.7 °F 30.05 in Calm     90 % 0.00 in
00:55 59.6 °F 56.7 °F 30.04 in Calm     90 % 0.00 in
01:00 59.5 °F 56.6 °F 30.04 in Calm     90 % 0.00 in
01:05 59.4 °F 56.2 °F 30.04 in SW 0.3 mph   89 % 0.00 in
01:10 59.3 °F 56.1 °F 30.04 in WSW 0.3 mph 3.5 mph 89 % 0.00 in
01:15 59.2 °F 56.3 °F 30.04 in SW 2.1 mph 4.0 mph 90 % 0.00 in
01:20 59.1 °F 56.2 °F 30.04 in SW 0.4 mph 1.2 mph 90 % 0.00 in
01:25 59.1 °F 56.5 °F 30.04 in SW 0.3 mph 1.2 mph 91 % 0.00 in
01:30 59.1 °F 56.5 °F 30.03 in Calm   1.2 mph 91 % 0.00 in
01:35 59.0 °F 56.4 °F 30.03 in Calm     91 % 0.00 in
01:40 58.8 °F 55.6 °F 30.03 in Calm   1.0 mph 89 % 0.00 in
01:45 58.6 °F 55.1 °F 30.03 in Calm   1.0 mph 88 % 0.00 in
01:50 58.4 °F 54.9 °F 30.03 in Calm   1.0 mph 88 % 0.00 in
01:55 58.2 °F 54.7 °F 30.03 in Calm     88 % 0.00 in
02:00 58.1 °F 54.9 °F 30.03 in Calm     89 % 0.00 in
02:05 58.0 °F 54.8 °F 30.03 in Calm     89 % 0.00 in
02:11 57.9 °F 55.0 °F 30.03 in Calm     90 % 0.00 in
02:16 57.8 °F 54.9 °F 30.03 in Calm     90 % 0.00 in
02:21 57.7 °F 54.8 °F 30.02 in Calm     90 % 0.00 in
02:26 57.6 °F 54.7 °F 30.03 in Calm     90 % 0.00 in
02:31 57.4 °F 54.5 °F 30.02 in Calm     90 % 0.00 in
02:36 57.3 °F 54.4 °F 30.02 in Calm     90 % 0.00 in
02:46 57.1 °F 54.5 °F 30.02 in Calm     91 % 0.00 in
02:51 57.0 °F 54.1 °F 30.02 in Calm     90 % 0.00 in
02:57 56.9 °F 54.3 °F 30.02 in Calm     91 % 0.00 in
03:02 56.8 °F 54.2 °F 30.01 in Calm     91 % 0.00 in
03:07 56.7 °F 54.1 °F 30.02 in Calm     91 % 0.00 in
03:12 56.6 °F 54.0 °F 30.01 in Calm     91 % 0.00 in
03:17 56.5 °F 53.9 °F 30.01 in Calm     91 % 0.00 in
03:22 56.3 °F 53.7 °F 30.01 in Calm     91 % 0.00 in
03:27 56.3 °F 53.7 °F 30.01 in Calm     91 % 0.00 in
03:32 56.2 °F 53.6 °F 30.01 in Calm     91 % 0.00 in
03:37 56.1 °F 53.8 °F 30.01 in Calm     92 % 0.00 in
03:42 56.0 °F 53.7 °F 30.01 in Calm     92 % 0.00 in
03:48 56.0 °F 53.7 °F 30.01 in Calm     92 % 0.00 in
03:53 55.9 °F 53.9 °F 30.01 in Calm     93 % 0.00 in
03:58 55.9 °F 53.9 °F 30.01 in Calm     93 % 0.00 in
04:03 55.9 °F 53.9 °F 30.00 in Calm     93 % 0.00 in
04:08 55.9 °F 53.9 °F 30.00 in Calm     93 % 0.00 in
04:13 55.8 °F 53.8 °F 30.00 in Calm     93 % 0.00 in
04:18 55.7 °F 53.7 °F 30.00 in Calm     93 % 0.00 in
04:23 55.7 °F 53.7 °F 30.00 in Calm     93 % 0.00 in
04:28 55.6 °F 53.6 °F 30.00 in Calm     93 % 0.00 in
04:33 55.5 °F 53.5 °F 29.99 in Calm     93 % 0.00 in
04:39 55.5 °F 53.5 °F 29.99 in Calm     93 % 0.00 in
04:44 55.4 °F 53.4 °F 29.99 in Calm     93 % 0.00 in
04:49 55.3 °F 53.3 °F 29.99 in Calm     93 % 0.00 in
04:54 55.3 °F 53.6 °F 29.99 in Calm     94 % 0.00 in
04:59 55.3 °F 53.6 °F 29.98 in Calm     94 % 0.00 in
05:04 55.2 °F 53.5 °F 29.98 in Calm     94 % 0.00 in
05:09 55.2 °F 53.5 °F 29.98 in Calm     94 % 0.00 in
05:14 55.1 °F 53.4 °F 29.98 in Calm     94 % 0.00 in
05:19 55.1 °F 53.4 °F 29.98 in Calm     94 % 0.00 in
05:24 55.0 °F 53.3 °F 29.98 in Calm     94 % 0.00 in
05:30 54.9 °F 53.2 °F 29.97 in Calm     94 % 0.00 in
05:35 54.7 °F 53.0 °F 29.97 in Calm     94 % 0.00 in
05:40 54.6 °F 52.9 °F 29.98 in SW 0.3 mph 1.2 mph 94 % 0.00 in
05:45 54.5 °F 52.5 °F 29.97 in Calm     93 % 0.00 in
05:50 54.4 °F 52.4 °F 29.97 in Calm     93 % 0.00 in
05:55 54.3 °F 52.3 °F 29.97 in Calm     93 % 0.00 in
06:00 54.2 °F 52.5 °F 29.96 in Calm     94 % 0.00 in
06:05 54.1 °F 52.1 °F 29.96 in Calm     93 % 0.00 in
06:10 54.0 °F 52.3 °F 29.96 in Calm     94 % 0.00 in
06:15 53.9 °F 52.2 °F 29.96 in SW 0.2 mph 1.2 mph 94 % 0.00 in
06:20 54.0 °F 52.3 °F 29.96 in SW 1.0 mph 2.0 mph 94 % 0.00 in
06:25 54.1 °F 52.7 °F 29.96 in Calm   2.0 mph 95 % 0.00 in
06:30 54.2 °F 52.8 °F 29.95 in Calm     95 % 0.00 in
06:35 54.3 °F 52.9 °F 29.95 in Calm     95 % 0.00 in
06:40 54.4 °F 53.0 °F 29.95 in Calm     95 % 0.00 in
06:45 54.4 °F 53.0 °F 29.94 in Calm     95 % 0.00 in
06:50 54.4 °F 53.0 °F 29.94 in Calm     95 % 0.00 in
06:55 54.4 °F 53.0 °F 29.94 in Calm     95 % 0.00 in
07:00 54.4 °F 53.0 °F 29.94 in Calm     95 % 0.00 in
07:05 54.3 °F 52.9 °F 29.94 in Calm     95 % 0.00 in
07:10 54.3 °F 52.9 °F 29.94 in Calm     95 % 0.00 in
07:21 54.3 °F 53.2 °F 29.94 in Calm     96 % 0.00 in
07:26 54.3 °F 53.2 °F 29.94 in Calm     96 % 0.00 in
07:31 54.3 °F 53.2 °F 29.94 in Calm     96 % 0.00 in
07:36 54.2 °F 53.1 °F 29.94 in Calm     96 % 0.00 in
07:41 54.2 °F 53.1 °F 29.94 in Calm     96 % 0.00 in
07:46 54.2 °F 53.1 °F 29.94 in Calm     96 % 0.00 in
07:51 54.1 °F 53.0 °F 29.93 in Calm     96 % 0.00 in
07:56 54.1 °F 53.0 °F 29.93 in Calm     96 % 0.00 in
08:01 54.1 °F 53.0 °F 29.93 in Calm     96 % 0.00 in
08:07 54.1 °F 53.0 °F 29.93 in Calm     96 % 0.00 in
08:12 54.1 °F 53.0 °F 29.93 in Calm     96 % 0.00 in
08:17 54.2 °F 53.1 °F 29.93 in Calm     96 % 0.00 in
08:22 54.2 °F 53.1 °F 29.92 in Calm     96 % 0.00 in
08:27 54.3 °F 53.2 °F 29.92 in Calm     96 % 0.00 in
08:32 54.4 °F 53.3 °F 29.92 in Calm     96 % 0.00 in
08:37 54.5 °F 53.4 °F 29.92 in Calm     96 % 0.00 in
08:42 54.7 °F 53.6 °F 29.92 in SW 0.1 mph   96 % 0.00 in
08:47 55.0 °F 54.2 °F 29.92 in Calm     97 % 0.00 in
08:52 55.4 °F 54.6 °F 29.92 in Calm     97 % 0.00 in
08:58 55.9 °F 55.1 °F 29.92 in Calm     97 % 0.00 in
09:03 56.6 °F 55.8 °F 29.92 in SW 1.7 mph 4.0 mph 97 % 0.00 in
09:08 57.2 °F 56.6 °F 29.92 in SW 1.5 mph 4.0 mph 98 % 0.00 in
09:13 57.8 °F 57.2 °F 29.92 in SW 1.5 mph 2.3 mph 98 % 0.00 in
09:18 58.2 °F 57.6 °F 29.91 in SW 1.6 mph 3.5 mph 98 % 0.00 in
09:23 58.5 °F 57.9 °F 29.91 in SW 0.4 mph 3.5 mph 98 % 0.00 in
09:28 58.8 °F 58.2 °F 29.91 in Calm   2.3 mph 98 % 0.00 in
09:33 59.0 °F 58.4 °F 29.91 in WSW 0.1 mph 1.0 mph 98 % 0.00 in
09:38 59.3 °F 58.7 °F 29.91 in Calm   3.5 mph 98 % 0.00 in
09:44 59.5 °F 58.9 °F 29.90 in Calm     98 % 0.00 in
09:49 59.8 °F 59.2 °F 29.90 in SW 0.2 mph 1.2 mph 98 % 0.00 in
09:54 60.0 °F 59.4 °F 29.90 in SW 1.2 mph 3.5 mph 98 % 0.00 in
09:59 60.3 °F 59.7 °F 29.90 in WSW 0.7 mph 3.0 mph 98 % 0.00 in
10:04 60.4 °F 59.8 °F 29.89 in Calm   1.2 mph 98 % 0.00 in
10:14 60.7 °F 60.1 °F 29.88 in SW 0.4 mph 1.0 mph 98 % 0.00 in
10:19 60.8 °F 60.2 °F 29.87 in SW 1.4 mph 3.5 mph 98 % 0.00 in
10:24 60.9 °F 60.3 °F 29.87 in SW 0.5 mph 2.3 mph 98 % 0.00 in
10:29 61.0 °F 60.4 °F 29.87 in SSW 3.0 mph 5.8 mph 98 % 0.00 in
10:35 61.2 °F 60.6 °F 29.87 in SW 2.8 mph 5.0 mph 98 % 0.00 in
10:40 61.5 °F 60.9 °F 29.87 in WSW 4.2 mph 5.8 mph 98 % 0.00 in
10:45 61.8 °F 60.9 °F 29.87 in SW 2.8 mph 4.0 mph 97 % 0.00 in
10:50 62.1 °F 61.2 °F 29.87 in SSW 1.9 mph 4.6 mph 97 % 0.00 in
10:55 62.4 °F 61.2 °F 29.87 in SSW 4.2 mph 6.9 mph 96 % 0.00 in
11:00 62.8 °F 61.3 °F 29.87 in SSW 1.4 mph 4.0 mph 95 % 0.00 in
11:05 63.2 °F 61.1 °F 29.87 in SW 2.8 mph 4.6 mph 93 % 0.00 in
11:10 63.6 °F 60.9 °F 29.86 in SW 0.8 mph 4.6 mph 91 % 0.00 in
11:15 64.0 °F 60.7 °F 29.86 in SSW 4.7 mph 5.8 mph 89 % 0.00 in
11:20 64.3 °F 60.7 °F 29.85 in SSW 0.4 mph 2.3 mph 88 % 0.00 in
11:25 64.6 °F 61.3 °F 29.85 in SSW 1.4 mph 4.0 mph 89 % 0.00 in
11:30 64.9 °F 60.9 °F 29.85 in SW 2.0 mph 7.0 mph 87 % 0.00 in
11:35 65.3 °F 61.0 °F 29.84 in SW 4.1 mph 5.0 mph 86 % 0.00 in
11:40 65.6 °F 61.3 °F 29.85 in WSW 2.0 mph 7.0 mph 86 % 0.00 in
11:45 66.1 °F 61.4 °F 29.85 in WSW 3.0 mph 9.0 mph 85 % 0.00 in
11:50 66.6 °F 61.3 °F 29.85 in SSW 2.0 mph 6.9 mph 83 % 0.00 in
11:55 67.0 °F 61.3 °F 29.85 in WSW 2.0 mph 4.0 mph 82 % 0.00 in
12:00 67.6 °F 61.2 °F 29.84 in WSW 3.4 mph 5.0 mph 80 % 0.00 in
12:05 68.2 °F 61.1 °F 29.84 in West 5.4 mph 10.4 mph 78 % 0.00 in
12:11 68.8 °F 60.9 °F 29.83 in SW 5.7 mph 10.4 mph 76 % 0.00 in
12:16 69.4 °F 61.1 °F 29.83 in SW 5.4 mph 9.2 mph 75 % 0.00 in
12:21 69.8 °F 61.5 °F 29.83 in SSW 3.6 mph 6.0 mph 75 % 0.00 in
12:26 70.2 °F 61.5 °F 29.83 in SW 5.3 mph 10.4 mph 74 % 0.00 in
12:31 70.6 °F 61.1 °F 29.82 in SW 6.2 mph 12.7 mph 72 % 0.00 in
12:36 70.9 °F 61.0 °F 29.82 in SW 7.8 mph 11.5 mph 71 % 0.00 in
12:41 71.1 °F 60.8 °F 29.81 in WSW 5.6 mph 8.0 mph 70 % 0.00 in
12:46 71.3 °F 61.0 °F 29.81 in WSW 3.4 mph 13.8 mph 70 % 0.00 in
12:51 71.4 °F 60.7 °F 29.82 in SW 6.5 mph 17.3 mph 69 % 0.00 in
12:56 71.5 °F 60.8 °F 29.81 in SSW 5.2 mph 9.2 mph 69 % 0.00 in
13:02 71.5 °F 60.8 °F 29.81 in WSW 4.8 mph 8.1 mph 69 % 0.00 in
13:07 71.5 °F 60.4 °F 29.81 in South 8.0 mph 11.5 mph 68 % 0.00 in
13:12 71.3 °F 60.2 °F 29.80 in SSW 5.8 mph 11.5 mph 68 % 0.00 in
13:17 71.2 °F 60.5 °F 29.80 in West 3.8 mph 8.1 mph 69 % 0.00 in
13:22 71.0 °F 60.3 °F 29.80 in WSW 5.6 mph 10.4 mph 69 % 0.00 in
13:27 70.9 °F 60.2 °F 29.79 in SW 3.9 mph 6.9 mph 69 % 0.00 in
13:32 70.8 °F 60.1 °F 29.78 in WSW 7.6 mph 13.8 mph 69 % 0.00 in
13:37 70.8 °F 60.1 °F 29.78 in SW 5.7 mph 10.4 mph 69 % 0.00 in
13:42 70.8 °F 60.1 °F 29.78 in SSW 6.4 mph 13.8 mph 69 % 0.00 in
13:47 70.7 °F 60.0 °F 29.79 in WSW 7.4 mph 12.7 mph 69 % 0.00 in
13:52 70.8 °F 60.1 °F 29.78 in WNW 4.5 mph 11.5 mph 69 % 0.00 in
13:57 70.9 °F 59.8 °F 29.78 in SW 7.3 mph 18.4 mph 68 % 0.00 in
14:03 71.0 °F 59.9 °F 29.78 in SW 5.6 mph 11.5 mph 68 % 0.00 in
14:08 71.1 °F 60.0 °F 29.78 in SSW 5.7 mph 9.2 mph 68 % 0.00 in
14:13 71.2 °F 60.1 °F 29.78 in WSW 7.4 mph 13.8 mph 68 % 0.00 in
14:18 71.3 °F 60.2 °F 29.78 in SW 6.3 mph 15.0 mph 68 % 0.00 in
14:23 71.4 °F 60.3 °F 29.78 in SW 8.0 mph 11.5 mph 68 % 0.00 in
14:28 71.5 °F 60.4 °F 29.78 in WSW 7.0 mph 18.4 mph 68 % 0.00 in
14:33 71.8 °F 60.2 °F 29.78 in SW 7.5 mph 10.4 mph 67 % 0.00 in
14:38 72.1 °F 60.5 °F 29.78 in West 5.5 mph 9.2 mph 67 % 0.00 in
14:43 72.1 °F 60.5 °F 29.78 in WNW 8.3 mph 13.8 mph 67 % 0.00 in
14:48 71.9 °F 60.3 °F 29.78 in West 8.5 mph 12.7 mph 67 % 0.00 in
14:54 71.9 °F 60.3 °F 29.78 in SW 9.1 mph 16.1 mph 67 % 0.00 in
14:59 71.8 °F 60.2 °F 29.78 in WSW 5.8 mph 11.5 mph 67 % 0.00 in
15:04 71.9 °F 60.3 °F 29.78 in West 6.8 mph 10.4 mph 67 % 0.00 in
15:09 71.9 °F 60.3 °F 29.77 in WSW 8.5 mph 11.5 mph 67 % 0.00 in
15:14 71.9 °F 60.3 °F 29.77 in WSW 5.5 mph 11.5 mph 67 % 0.00 in
15:19 71.8 °F 60.2 °F 29.77 in WSW 5.9 mph 13.0 mph 67 % 0.00 in
15:24 71.7 °F 60.2 °F 29.78 in SSW 4.9 mph 9.2 mph 67 % 0.00 in
15:29 71.6 °F 60.1 °F 29.78 in WSW 7.3 mph 16.1 mph 67 % 0.00 in
15:34 71.5 °F 60.4 °F 29.77 in SW 5.2 mph 10.4 mph 68 % 0.00 in
15:40 71.4 °F 60.3 °F 29.78 in WNW 4.4 mph 8.1 mph 68 % 0.00 in
15:45 71.3 °F 60.2 °F 29.78 in SSW 5.4 mph 15.0 mph 68 % 0.00 in
15:50 71.3 °F 60.2 °F 29.78 in NW 5.5 mph 12.7 mph 68 % 0.00 in
15:55 71.2 °F 60.1 °F 29.78 in WSW 4.4 mph 9.2 mph 68 % 0.00 in
16:00 71.1 °F 60.4 °F 29.78 in WSW 4.7 mph 9.2 mph 69 % 0.00 in
16:05 71.1 °F 60.0 °F 29.78 in WSW 4.7 mph 5.8 mph 68 % 0.00 in
16:10 71.0 °F 59.9 °F 29.78 in WNW 5.2 mph 9.2 mph 68 % 0.00 in
16:15 70.9 °F 59.8 °F 29.78 in WNW 4.7 mph 8.1 mph 68 % 0.00 in
16:20 70.9 °F 59.8 °F 29.79 in WNW 4.4 mph 5.0 mph 68 % 0.00 in
16:25 70.9 °F 59.8 °F 29.79 in West 5.5 mph 12.7 mph 68 % 0.00 in
16:30 70.9 °F 59.8 °F 29.79 in West 2.0 mph 9.0 mph 68 % 0.00 in
16:35 70.8 °F 59.8 °F 29.79 in West 3.0 mph 12.0 mph 68 % 0.00 in
16:40 70.8 °F 59.7 °F 29.79 in WSW 3.2 mph 8.1 mph 68 % 0.00 in
16:45 70.7 °F 59.6 °F 29.79 in West 3.0 mph 12.0 mph 68 % 0.00 in
16:50 70.6 °F 59.5 °F 29.80 in West 1.7 mph 8.1 mph 68 % 0.00 in
16:55 70.4 °F 58.9 °F 29.80 in West 5.2 mph 10.4 mph 67 % 0.00 in
17:01 70.2 °F 58.3 °F 29.80 in WNW 9.5 mph 15.0 mph 66 % 0.00 in
17:06 69.9 °F 58.4 °F 29.80 in NW 7.0 mph 12.7 mph 67 % 0.00 in
17:11 69.7 °F 58.3 °F 29.80 in West 6.7 mph 11.5 mph 67 % 0.00 in
17:16 69.4 °F 57.5 °F 29.81 in WNW 8.7 mph 14.0 mph 66 % 0.00 in
17:21 69.3 °F 57.5 °F 29.81 in WNW 4.4 mph 10.0 mph 66 % 0.00 in
17:26 69.0 °F 56.7 °F 29.82 in West 4.5 mph 10.4 mph 65 % 0.00 in
17:31 68.9 °F 57.1 °F 29.82 in WNW 3.0 mph 11.5 mph 66 % 0.00 in
17:36 68.7 °F 56.5 °F 29.82 in WSW 6.2 mph 12.7 mph 65 % 0.00 in
17:41 68.5 °F 55.8 °F 29.82 in West 6.3 mph 11.5 mph 64 % 0.00 in
17:46 68.3 °F 55.6 °F 29.83 in WNW 6.7 mph 10.4 mph 64 % 0.00 in
17:51 68.1 °F 55.9 °F 29.82 in NW 4.8 mph 12.0 mph 65 % 0.00 in
17:57 67.8 °F 56.0 °F 29.83 in WNW 5.2 mph 11.5 mph 66 % 0.00 in
18:02 67.5 °F 55.3 °F 29.84 in NW 7.3 mph 12.7 mph 65 % 0.00 in
18:12 67.0 °F 55.3 °F 29.84 in WNW 3.8 mph 5.8 mph 66 % 0.00 in
18:17 66.7 °F 55.0 °F 29.85 in West 2.6 mph 8.1 mph 66 % 0.00 in
18:22 66.4 °F 55.1 °F 29.86 in NW 4.7 mph 8.1 mph 67 % 0.00 in
18:27 66.1 °F 55.2 °F 29.86 in NW 3.8 mph 11.5 mph 68 % 0.00 in
18:37 65.4 °F 55.4 °F 29.87 in WSW 1.9 mph 5.8 mph 70 % 0.00 in
18:42 65.1 °F 54.7 °F 29.87 in NNW 4.9 mph 11.5 mph 69 % 0.00 in
18:47 64.8 °F 54.0 °F 29.87 in North 6.3 mph 10.4 mph 68 % 0.00 in
18:52 64.5 °F 53.7 °F 29.87 in NW 6.8 mph 11.5 mph 68 % 0.00 in
18:57 64.2 °F 53.8 °F 29.87 in WNW 3.4 mph 12.7 mph 69 % 0.00 in
19:02 64.0 °F 53.6 °F 29.87 in NW 5.0 mph 12.7 mph 69 % 0.00 in
19:08 63.9 °F 53.5 °F 29.87 in WSW 0.6 mph 3.0 mph 69 % 0.00 in
19:13 63.7 °F 53.7 °F 29.87 in WNW 5.4 mph 9.2 mph 70 % 0.00 in
19:23 63.3 °F 54.1 °F 29.88 in WNW 3.5 mph 6.9 mph 72 % 0.00 in
19:28 63.2 °F 53.6 °F 29.88 in NNW 3.8 mph 10.4 mph 71 % 0.00 in
19:33 62.9 °F 53.4 °F 29.88 in NW 5.1 mph 10.4 mph 71 % 0.00 in
19:38 62.8 °F 53.6 °F 29.89 in NW 0.5 mph 4.6 mph 72 % 0.00 in
19:43 62.6 °F 53.4 °F 29.89 in NW 2.5 mph 4.6 mph 72 % 0.00 in
19:48 62.4 °F 53.6 °F 29.89 in NW 0.9 mph 4.6 mph 73 % 0.00 in
19:53 62.3 °F 53.9 °F 29.89 in WNW 2.2 mph 5.8 mph 74 % 0.00 in
19:59 62.1 °F 53.7 °F 29.89 in NW 2.2 mph 5.0 mph 74 % 0.00 in
20:04 62.0 °F 53.6 °F 29.89 in WNW 2.7 mph 4.6 mph 74 % 0.00 in
20:09 61.8 °F 53.4 °F 29.89 in SW 3.2 mph 5.8 mph 74 % 0.00 in
20:14 61.6 °F 53.6 °F 29.89 in NW 1.8 mph 9.2 mph 75 % 0.00 in
20:19 61.5 °F 53.5 °F 29.89 in NW 0.9 mph 4.6 mph 75 % 0.00 in
20:24 61.3 °F 52.6 °F 29.90 in North 2.8 mph 4.6 mph 73 % 0.00 in
20:29 61.2 °F 52.8 °F 29.90 in NW 4.0 mph 4.6 mph 74 % 0.00 in
20:34 61.1 °F 52.4 °F 29.90 in NW 2.1 mph 9.2 mph 73 % 0.00 in
20:39 61.0 °F 52.3 °F 29.90 in North 0.9 mph 3.5 mph 73 % 0.00 in
20:44 60.9 °F 52.6 °F 29.90 in North 3.1 mph 5.0 mph 74 % 0.00 in
20:50 60.7 °F 52.4 °F 29.90 in North 1.6 mph 3.5 mph 74 % 0.00 in
20:55 60.6 °F 52.3 °F 29.90 in WNW 1.8 mph 3.5 mph 74 % 0.00 in
21:00 60.5 °F 52.2 °F 29.90 in NW 1.5 mph 3.5 mph 74 % 0.00 in
21:05 60.3 °F 52.0 °F 29.90 in NW 1.4 mph 5.8 mph 74 % 0.00 in
21:10 60.2 °F 52.2 °F 29.91 in West 1.2 mph 4.6 mph 75 % 0.00 in
21:15 60.1 °F 52.1 °F 29.90 in WNW 0.8 mph 3.5 mph 75 % 0.00 in
21:20 59.9 °F 52.3 °F 29.91 in NNE 1.8 mph 5.8 mph 76 % 0.00 in
21:25 59.7 °F 52.1 °F 29.91 in NW 1.0 mph 6.9 mph 76 % 0.00 in
21:30 59.6 °F 52.0 °F 29.91 in NW 0.1 mph 2.3 mph 76 % 0.00 in
21:35 59.4 °F 51.8 °F 29.91 in Calm   3.0 mph 76 % 0.00 in
21:40 59.3 °F 51.7 °F 29.91 in NW 1.0 mph 6.0 mph 76 % 0.00 in
21:45 59.1 °F 51.5 °F 29.91 in NNE 1.9 mph 3.5 mph 76 % 0.00 in
21:50 59.0 °F 51.4 °F 29.91 in NNW 1.0 mph 4.0 mph 76 % 0.00 in
21:55 58.9 °F 51.3 °F 29.91 in NW 2.0 mph 4.0 mph 76 % 0.00 in
22:00 58.8 °F 51.6 °F 29.91 in WNW 0.4 mph 2.3 mph 77 % 0.00 in
22:05 58.7 °F 51.9 °F 29.92 in NW 1.0 mph 5.0 mph 78 % 0.00 in
22:10 58.7 °F 51.8 °F 29.92 in NNW 1.0 mph 4.0 mph 78 % 0.00 in
22:15 58.6 °F 51.8 °F 29.91 in NNW 1.8 mph 3.0 mph 78 % 0.00 in
22:20 58.5 °F 51.7 °F 29.91 in Calm   4.0 mph 78 % 0.00 in
22:25 58.4 °F 51.6 °F 29.92 in NNW 1.0 mph 5.0 mph 78 % 0.00 in
22:30 58.3 °F 51.5 °F 29.91 in NW 0.1 mph 3.5 mph 78 % 0.00 in
22:35 58.2 °F 51.4 °F 29.92 in Calm   3.0 mph 78 % 0.00 in
22:40 58.1 °F 51.3 °F 29.92 in NW 1.0 mph 3.0 mph 78 % 0.00 in
22:45 58.0 °F 51.2 °F 29.92 in WNW 1.4 mph 4.6 mph 78 % 0.00 in
22:50 57.8 °F 51.0 °F 29.93 in Calm   4.0 mph 78 % 0.00 in
22:55 57.7 °F 50.9 °F 29.92 in NW 1.0 mph 5.0 mph 78 % 0.00 in
23:00 57.6 °F 50.8 °F 29.92 in WNW 1.2 mph 4.0 mph 78 % 0.00 in
23:06 57.5 °F 50.7 °F 29.92 in WNW 1.1 mph 3.5 mph 78 % 0.00 in
23:11 57.4 °F 50.6 °F 29.92 in NNE 1.9 mph 6.0 mph 78 % 0.00 in
23:16 57.3 °F 50.1 °F 29.92 in NNW 0.4 mph 2.3 mph 77 % 0.00 in
23:21 57.1 °F 50.0 °F 29.92 in Calm     77 % 0.00 in
23:26 57.0 °F 49.9 °F 29.92 in NNW 0.1 mph 1.2 mph 77 % 0.00 in
23:31 57.0 °F 50.2 °F 29.92 in Calm   1.2 mph 78 % 0.00 in
23:36 56.9 °F 50.1 °F 29.92 in Calm   1.2 mph 78 % 0.00 in
23:41 56.7 °F 49.9 °F 29.92 in NNW 0.7 mph 3.5 mph 78 % 0.00 in
23:46 56.6 °F 49.8 °F 29.92 in NNW 0.2 mph 1.0 mph 78 % 0.00 in
23:51 56.5 °F 49.7 °F 29.92 in NNW 1.4 mph 3.0 mph 78 % 0.00 in
23:56 56.4 °F 49.6 °F 29.92 in Calm   3.5 mph 78 % 0.00 in
Crab Meadow Weather
Compliments of Weather Underground - 3 mb

Script developed by  Jim McMurry - jmcmurry@mwt.net Adapted for the template by  Wim van der Kuil - Leuven-Template.eu

Barometer: A barometer is an instrument used to measure atmospheric pressure. A barometer is commonly used for weather prediction, as high air pressure in a region indicates fair weather while low pressure indicates that storms are more likely. When used in combination with wind observations, reasonably accurate short-term forecasts can be made.